Weather History for CWWA - November, 2013

Change the Weather History Date:

Wednesday, November 13, 2013

  Actual Average Record
Temperature  
Mean Temperature 50 °F -  
Max Temperature 54 °F - - ()
Min Temperature 46 °F - - ()
Degree Days  
Heating Degree Days 15    
Moisture  
Dew Point 46 °F    
Average Humidity 86    
Maximum Humidity 95    
Minimum Humidity 66    
Precipitation  
Precipitation 0.04 in - - ()
Sea Level Pressure  
Sea Level Pressure 30.36 in    
Wind  
Wind Speed 2 mph ()    
Max Wind Speed 2 mph    
Max Gust Speed -    
T = Trace of Precipitation, MM = Missing Value Source: Averaged Metar Reports

Daily Weather History Graph

Daily Weather History Graph

Search for Another Location

Airport or City:

Trip Planner

Search our weather history database for the weather conditions in past years. The results will help you decide how hot, cold, wet, or windy it might be!

Date:

Astronomy

Nov. 13, 2013 Rise Set
Actual Time 7:20 AM PST 4:32 PM PST
Civil Twilight 6:46 AM PST 5:07 PM PST
Nautical Twilight 6:07 AM PST 5:46 PM PST
Astronomical Twilight 5:29 AM PST 6:23 PM PST
Moon 2:40 PM PST (11/13) 2:59 AM PST (11/13)
Length of Visible Light 10h 21m
Length of Day
9h 11m
Waxing Gibbous, 85% of the Moon is Illuminated
Nov 13
Waxing Gibbous
Nov 17
Full
Nov 25
Last Quarter
Dec 2
New
Dec 9
First Quarter

Hourly Weather History & Observations

Time (PST) Temp. Dew Point Humidity Pressure Visibility Wind Dir Wind Speed Gust Speed Precip Events Conditions
12:00 AM 49.8 °F 47.8 °F 93% 30.32 in - NNE 1.2 mph - 0.02 in   Unknown
1:00 AM 48.9 °F 47.3 °F 94% 30.32 in - NE 2.3 mph - 0.02 in   Unknown
2:00 AM 48.6 °F 47.1 °F 95% 30.33 in - ENE 1.2 mph - N/A   Unknown
3:00 AM 48.0 °F 46.6 °F 95% 30.34 in - NE 1.2 mph - N/A   Unknown
4:00 AM 47 °F 45 °F 92% 30.34 in - NNE 2.3 mph - -  
4:00 AM 46.8 °F 45.3 °F 95% 30.34 in - NNE 2.3 mph - N/A   Unknown
5:00 AM 47.3 °F 45.9 °F 95% 30.35 in - NNE 2.3 mph - N/A   Unknown
6:00 AM 47.8 °F 46.2 °F 94% 30.37 in - NNE 1.2 mph - N/A   Unknown
7:00 AM 46.8 °F 45.1 °F 94% 30.38 in - ENE 2.3 mph - N/A   Unknown
8:00 AM 48.4 °F 46.0 °F 92% 30.39 in - ENE 2.3 mph - N/A   Unknown
9:00 AM 50.5 °F 45.7 °F 83% 30.40 in - East 2.3 mph - N/A   Unknown
10:00 AM 52 °F 46 °F 74% 30.40 in - ESE 1.2 mph - -  
10:00 AM 52.3 °F 46.2 °F 80% 30.40 in - ESE 1.2 mph - N/A   Unknown
11:00 AM 53.8 °F 46.2 °F 76% 30.40 in - SE 1.2 mph - N/A   Unknown
12:00 PM 52.9 °F 45.5 °F 76% 30.41 in - ESE 2.3 mph - N/A   Unknown
1:00 PM 53.6 °F 45.3 °F 74% 30.40 in - East 1.2 mph - N/A   Unknown
2:00 PM 53.2 °F 44.6 °F 72% 30.39 in - East 2.3 mph - N/A   Unknown
3:00 PM 53.4 °F 44.6 °F 72% 30.38 in - ENE 2.3 mph - N/A   Unknown
4:00 PM 53 °F 45 °F 66% 30.39 in - ENE 1.2 mph - -  
4:00 PM 52.5 °F 45.0 °F 75% 30.39 in - ENE 1.2 mph - N/A   Unknown
5:00 PM 51.6 °F 45.9 °F 81% 30.38 in - NE 1.2 mph - N/A   Unknown
6:00 PM 49.6 °F 47.3 °F 92% 30.37 in - NE 1.2 mph - 0.02 in   Unknown
7:00 PM 48.6 °F 46.8 °F 93% 30.36 in - ENE 2.3 mph - N/A   Unknown
8:00 PM 48.6 °F 46.9 °F 94% 30.35 in - NE 1.2 mph - N/A   Unknown
9:00 PM 48.7 °F 46.2 °F 91% 30.34 in - East 2.3 mph - N/A   Unknown
10:00 PM 48 °F 46 °F 88% 30.33 in - East 2.3 mph - -  
10:00 PM 48.0 °F 45.5 °F 91% 30.33 in - East 2.3 mph - 0.01 in   Unknown
11:00 PM 47.7 °F 45.0 °F 90% 30.32 in - East 2.3 mph - N/A   Unknown